Weather in Ergach

Russia / Perm Krai     57°29′08″N   56°42′50″E
temp.,
°C
wind,
m/s
gust,
m/s
humid.,
%
clouds,
%
prec.,
mm/h
press.,
hPa
HPBL,
m
4 august, wed
wed423:00+21s337533 0.0 101135
02:00+19s33675 0.0 101130
05:00+18s33645 0.0 101140
08:00+21ese34655 0.0 1011129
11:00+26s575298 0.0 1010510
14:00+30sw474248 0.0 10101243
17:00+30w474893 0.0 10101398
20:00+26nw1167100 0.0 101011
5 august, thu
thu523:00+21ssw2280100 0.0 101014
02:00+19ssw367985 0.0 1010105
05:00+17w227990 0.0 101021
08:00+20ene017567 0.1 1009127
11:00+23wnw337335 0.1 1010721
14:00+23nw546777 0.0 1010954
17:00+21nnw677196 0.0 1010851
20:00+19nnw58825 0.0 1011537
6 august, fri
fri623:00+16nw5108744 0.0 1011429
02:00+16nw4983100 0.0 1012511
05:00+17nw51076100 0.0 1012537
08:00+16nnw6127887 0.0 1012579
11:00+20nnw7105751 0.0 1013935
14:00+22nnw68486 0.0 10141674
17:00+22nnw47468 0.0 10151772
20:00+18nw47623 0.0 1015177
7 august, sat
sat723:00+15nw237177 0.0 101636
02:00+13nw3375100 0.0 101638
05:00+11nw368297 0.0 101793
08:00+14nw477068 0.0 1018315
11:00+18nw56534 0.0 10181156
14:00+20nw6844100 0.0 10181663
17:00+20nw574939 0.0 10181671
20:00+16wnw48663 0.0 1018296
8 august, sun
sun823:00+12nw34840 0.0 101952
02:00+10nw22883 0.0 101920
05:00+9nw22880 0.0 102126
08:00+13nnw36660 0.0 1021266
11:00+17nw465044 0.0 10201146
14:00+19nw56420 0.0 10201498
17:00+20nw45415 0.0 10191632
20:00+17nw22615 0.0 101929